AD7CQ Weather Reports


time (UTC)temp
C
wind
direction
speed
KPH
gust
KPH
rain 1hr
cm
rain 24hr
cm
rain mn
cm
humidity
%
barometer
mb
20260502204531 28 8 1.6 9.7 0.00 0.00 0.00 32 1009.6
20260502203025 27 14 0.0 6.4 0.00 0.00 0.00 36 1009.8
20260502201524 27 16 0.0 6.4 0.00 0.00 0.00 34 1010.0
20260502200020 27 293 0.0 6.4 0.00 0.00 0.00 36 1010.2
20260502194517 27 4 1.6 6.4 0.00 0.00 0.00 37 1010.5
20260502193014 26 26 1.6 9.7 0.00 0.00 0.00 37 1010.7
20260502191510 26 229 1.6 4.8 0.00 0.00 0.00 39 1010.9
20260502190013 25 286 1.6 8.0 0.00 0.00 0.00 42 1011.0
20260502184502 25 15 1.6 8.0 0.00 0.00 0.00 41 1011.2
20260502183100 23 318 0.0 4.8 0.00 0.00 0.00 43 1011.3
20260502181557 23 26 1.6 9.7 0.00 0.00 0.00 43 1011.3
20260502163037 19 4 0.0 0.0 0.00 0.00 0.00 51 1011.5
20260502161530 19 4 0.0 0.0 0.00 0.00 0.00 52 1011.5
20260502151522 17 8 0.0 0.0 0.00 0.00 0.00 58 1011.4
20260502123049 13 4 0.0 0.0 0.00 0.00 0.00 71 1010.9
20260502121549 13 4 0.0 0.0 0.00 0.00 0.00 71 1010.6
20260502120104 13 4 0.0 0.0 0.00 0.00 0.00 70 1010.7
20260502114610 13 4 0.0 0.0 0.00 0.00 0.00 70 1010.7
20260502113045 13 4 0.0 0.0 0.00 0.00 0.00 70 1010.7
20260502111544 13 4 0.0 0.0 0.00 0.00 0.00 70 1010.7
20260502110042 13 4 0.0 0.0 0.00 0.00 0.00 70 1010.5
20260502104541 13 4 0.0 1.6 0.00 0.00 0.00 69 1010.5
20260502103039 13 4 1.6 8.0 0.00 0.00 0.00 68 1010.4
20260502101555 13 359 0.0 0.0 0.00 0.00 0.00 69 1010.4
20260502091531 14 359 0.0 0.0 0.00 0.00 0.00 65 1010.4
20260502071519 16 359 0.0 0.0 0.00 0.00 0.00 61 1010.3
20260502070016 16 359 0.0 0.0 0.00 0.00 0.00 60 1010.2
20260502064535 16 359 0.0 1.6 0.00 0.00 0.00 60 1010.3
20260502063020 16 359 0.0 0.0 0.00 0.00 0.00 59 1010.3
20260502061516 16 341 0.0 0.0 0.00 0.00 0.00 60 1010.3
20260502060028 17 359 0.0 0.0 0.00 0.00 0.00 58 1010.1
20260502054513 17 359 0.0 0.0 0.00 0.00 0.00 58 1010.2
20260502053013 17 359 0.0 0.0 0.00 0.00 0.00 56 1010.2
20260502051513 18 359 0.0 0.0 0.00 0.00 0.00 55 1010.2
20260502050019 18 359 0.0 1.6 0.00 0.00 0.00 55 1010.1
20260502044513 18 359 0.0 1.6 0.00 0.00 0.00 55 1010.0
20260502043012 18 341 1.6 4.8 0.00 0.00 0.00 54 1010.0
20260502041513 20 359 0.0 0.0 0.00 0.00 0.00 54 1009.9
20260502040015 20 359 0.0 1.6 0.00 0.00 0.00 52 1009.8
20260502034510 21 359 0.0 3.2 0.00 0.00 0.00 49 1009.8
20260502033019 22 359 0.0 1.6 0.00 0.00 0.00 45 1009.7
20260502031510 22 359 0.0 0.0 0.00 0.00 0.00 43 1009.6
20260502030009 23 341 0.0 0.0 0.00 0.00 0.00 43 1009.3
20260502024513 23 359 0.0 0.0 0.00 0.00 0.00 41 1009.3
20260502023008 24 359 0.0 4.8 0.00 0.00 0.00 40 1009.2
20260502021506 25 340 1.6 4.8 0.00 0.00 0.00 36 1009.2
20260502020005 25 359 0.0 4.8 0.00 0.00 0.00 33 1009.4
20260502014503 26 359 0.0 4.8 0.00 0.00 0.00 31 1009.5
20260502013002 26 359 0.0 4.8 0.00 0.00 0.00 31 1009.6
20260502011502 26 359 0.0 3.2 0.00 0.00 0.00 30 1009.7
20260502010110 27 328 0.0 6.4 0.00 0.00 0.00 28 1009.8
20260502004558 27 317 0.0 6.4 0.00 0.00 0.00 27 1009.9
20260502003157 27 359 0.0 9.7 0.00 0.00 0.00 26 1009.9
20260502001556 28 316 1.6 12.9 0.00 0.00 0.00 26 1010.0
20260502000054 28 262 0.0 6.4 0.00 0.00 0.00 26 1010.1
20260501234553 28 275 0.0 4.8 0.00 0.00 0.00 24 1010.1
20260501233101 28 354 1.6 6.4 0.00 0.00 0.00 24 1010.3
20260501231548 28 359 1.6 8.0 0.00 0.00 0.00 24 1010.4
20260501230049 28 4 1.6 9.7 0.00 0.00 0.00 25 1010.6
20260501224544 28 15 1.6 4.8 0.00 0.00 0.00 26 1010.8
20260501223042 28 20 0.0 0.0 0.00 0.00 0.00 26 1011.0
20260501221537 27 21 0.0 8.0 0.00 0.00 0.00 26 1011.3
20260501220038 27 22 0.0 9.7 0.00 0.00 0.00 28 1011.5
20260501214533 26 40 0.0 3.2 0.00 0.00 0.00 28 1011.9
20260501213034 26 25 0.0 6.4 0.00 0.00 0.00 29 1012.2
20260501211525 26 25 0.0 0.0 0.00 0.00 0.00 29 1012.5
20260501210021 26 25 0.0 4.8 0.00 0.00 0.00 29 1012.8